Change the Weather History Date:

Thursday, October 11, 2012

  Actual Average (KOXV) Record (KOXV)
Temperature  
Mean Temperature 56 °F -  
Max Temperature 71 °F 65 °F 84 °F (1960)
Min Temperature 41 °F 43 °F 21 °F (1987)
Degree Days  
Heating Degree Days 9    
Growing Degree Days 6 (Base 50)    
Moisture  
Dew Point 32 °F    
Average Humidity 47    
Maximum Humidity 66    
Minimum Humidity 29    
Precipitation  
Precipitation 0.00 in - - ()
Sea Level Pressure  
Sea Level Pressure 30.12 in    
Wind  
Wind Speed 8 mph (SW)    
Max Wind Speed 17 mph    
Max Gust Speed 26 mph    
Visibility 10 miles    
Events      
Averages and records for this station are not official NWS values.
T = Trace of Precipitation, MM = Missing Value Source: NWS Daily Summary

Daily Weather History Graph

Daily Weather History Graph

Search for Another Location

Airport or City:

Trip Planner

Search our weather history database for the weather conditions in past years. The results will help you decide how hot, cold, wet, or windy it might be!

Date:

Astronomy

Oct. 11, 2012 Rise Set
Actual Time 7:19 AM CDT 6:36 PM CDT
Civil Twilight 6:52 AM CDT 7:03 PM CDT
Nautical Twilight 6:19 AM CDT 7:35 PM CDT
Astronomical Twilight 5:47 AM CDT 8:08 PM CDT
Moon 2:56 AM CDT (10/11) 4:15 PM CDT (10/11)
Length of Visible Light 12h 11m
Length of Day
11h 16m
Waning Crescent, 18% of the Moon is Illuminated
Oct 11
Waning Crescent
Oct 15
New
Oct 21
First Quarter
Oct 29
Full
Nov 6
Last Quarter

Hourly Weather History & Observations

Time (CDT) Temp. Windchill Dew Point Humidity Pressure Visibility Wind Dir Wind Speed Gust Speed Precip Events Conditions
12:15 AM 42.4 °F 38.1 °F 28.2 °F 57% 30.10 in 10.0 mi South 6.9 mph - N/A   Clear
12:35 AM 42.8 °F 39.3 °F 28.4 °F 57% 30.09 in 10.0 mi South 5.8 mph - N/A   Clear
12:55 AM 43.3 °F 39.9 °F 28.2 °F 55% 30.09 in 10.0 mi South 5.8 mph - N/A   Clear
1:15 AM 43.7 °F 40.3 °F 28.4 °F 55% 30.09 in 10.0 mi South 5.8 mph - N/A   Clear
1:39 AM 42.8 °F 39.3 °F 28.4 °F 57% 30.09 in 10.0 mi South 5.8 mph - N/A   Clear
1:55 AM 43.5 °F 41.9 °F 28.4 °F 55% 30.09 in 10.0 mi South 3.5 mph - N/A   Clear
2:15 AM 43.9 °F 39.9 °F 28.9 °F 56% 30.09 in 10.0 mi South 6.9 mph - N/A   Clear
2:55 AM 44.6 °F 40.7 °F 29.7 °F 56% 30.09 in 10.0 mi SSW 6.9 mph - N/A   Clear
3:15 AM 45.0 °F 40.6 °F 29.8 °F 55% 30.08 in 10.0 mi SSW 8.1 mph - N/A   Clear
3:35 AM 44.8 °F 41.0 °F 30.2 °F 57% 30.08 in 10.0 mi SSW 6.9 mph - N/A   Clear
3:55 AM 45.3 °F 41.6 °F 30.2 °F 56% 30.08 in 10.0 mi SSW 6.9 mph - N/A   Clear
4:15 AM 45.1 °F 41.4 °F 30.7 °F 57% 30.07 in 10.0 mi SSW 6.9 mph - N/A   Clear
4:35 AM 43.3 °F 39.2 °F 30.6 °F 61% 30.07 in 10.0 mi South 6.9 mph - N/A   Clear
4:55 AM 41.7 °F 37.3 °F 30.6 °F 65% 30.07 in 10.0 mi South 6.9 mph - N/A   Clear
5:15 AM 41.9 °F 39.0 °F 30.9 °F 65% 30.08 in 10.0 mi South 4.6 mph - N/A   Clear
5:35 AM 44.4 °F 42.0 °F 31.1 °F 60% 30.08 in 10.0 mi SSW 4.6 mph - N/A   Clear
5:55 AM 43.3 °F 39.2 °F 30.9 °F 62% 30.07 in 10.0 mi South 6.9 mph - N/A   Clear
6:15 AM 41.7 °F 36.7 °F 31.1 °F 66% 30.07 in 10.0 mi South 8.1 mph - N/A   Clear
6:35 AM 43.3 °F 38.6 °F 31.8 °F 64% 30.07 in 10.0 mi South 8.1 mph - N/A   Clear
6:55 AM 43.9 °F 38.8 °F 31.8 °F 63% 30.07 in 10.0 mi South 9.2 mph - N/A   Clear
7:15 AM 44.4 °F 39.5 °F 31.8 °F 61% 30.07 in 10.0 mi SSW 9.2 mph - N/A   Clear
7:35 AM 44.8 °F 40.4 °F 31.8 °F 60% 30.08 in 10.0 mi SSW 8.1 mph - N/A   Clear
7:55 AM 45.7 °F 42.0 °F 32.0 °F 59% 30.09 in 10.0 mi SW 6.9 mph - N/A   Clear
8:15 AM 47.8 °F - 32.0 °F 54% 30.09 in 10.0 mi SSW 9.2 mph - N/A   Clear
8:35 AM 49.5 °F - 32.0 °F 51% 30.09 in 10.0 mi SSW 12.7 mph 17.3 mph N/A   Clear
8:55 AM 51.4 °F - 32.4 °F 48% 30.09 in 10.0 mi SSW 12.7 mph - N/A   Clear
9:15 AM 53.4 °F - 32.4 °F 45% 30.09 in 10.0 mi SSW 13.8 mph - N/A   Clear
9:35 AM 55.8 °F - 32.7 °F 42% 30.09 in 10.0 mi SSW 12.7 mph - N/A   Clear
9:55 AM 58.3 °F - 32.9 °F 38% 30.08 in 10.0 mi SSW 12.7 mph 16.1 mph N/A   Clear
10:15 AM 60.1 °F - 33.1 °F 36% 30.08 in 10.0 mi SSW 12.7 mph 17.3 mph N/A   Clear
10:35 AM 61.9 °F - 33.4 °F 34% 30.09 in 10.0 mi SW 12.7 mph 18.4 mph N/A   Clear
10:55 AM 63.5 °F - 33.8 °F 33% 30.09 in 10.0 mi SW 13.8 mph - N/A   Clear
11:15 AM 64.9 °F - 34.3 °F 32% 30.09 in 10.0 mi SW 11.5 mph 18.4 mph N/A   Clear
11:35 AM 66.6 °F - 35.2 °F 31% 30.09 in 10.0 mi WSW 15.0 mph 18.4 mph N/A   Clear
11:55 AM 68.0 °F - 36.0 °F 31% 30.09 in 10.0 mi West 10.4 mph 18.4 mph N/A   Clear
12:15 PM 68.4 °F - 36.3 °F 31% 30.09 in 10.0 mi West 12.7 mph - N/A   Clear
12:55 PM 69.1 °F - 37.9 °F 32% 30.07 in 10.0 mi West 11.5 mph 16.1 mph N/A   Clear
1:15 PM 69.3 °F - 38.5 °F 32% 30.06 in 10.0 mi WNW 11.5 mph 18.4 mph N/A   Clear
1:35 PM 70.0 °F - 38.5 °F 32% 30.06 in 10.0 mi West 6.9 mph - N/A   Clear
1:55 PM 70.5 °F - 39.4 °F 32% 30.06 in 10.0 mi WNW 5.8 mph 16.1 mph N/A   Clear
2:15 PM 69.8 °F - 39.9 °F 34% 30.06 in 10.0 mi West 10.4 mph - N/A   Scattered Clouds
2:35 PM 69.6 °F - 38.5 °F 32% 30.06 in 10.0 mi NW 15.0 mph - N/A   Scattered Clouds
2:55 PM 71.4 °F - 37.8 °F 29% 30.07 in 10.0 mi North 9.2 mph - N/A   Scattered Clouds
3:15 PM 68.2 °F - 34.5 °F 29% 30.08 in 10.0 mi North 11.5 mph 20.7 mph N/A   Scattered Clouds
3:55 PM 64.6 °F - 34.7 °F 33% 30.09 in 10.0 mi NNW 13.8 mph 18.4 mph N/A   Clear
4:15 PM 65.1 °F - 34.0 °F 31% 30.09 in 10.0 mi North 11.5 mph 17.3 mph N/A   Clear
5:35 PM 56.8 °F - 32.4 °F 40% 30.13 in 10.0 mi North 15.0 mph 23.0 mph N/A   Clear
5:55 PM 55.4 °F - 32.0 °F 41% 30.14 in 10.0 mi North 17.3 mph 20.7 mph N/A   Clear
6:35 PM 52.9 °F - 32.0 °F 45% 30.18 in 10.0 mi North 13.8 mph 21.9 mph N/A   Scattered Clouds
6:55 PM 52.0 °F - 32.0 °F 47% 30.19 in 10.0 mi North 11.5 mph 26.5 mph N/A   Scattered Clouds
7:15 PM 51.4 °F - 31.6 °F 47% 30.20 in 10.0 mi North 10.4 mph 19.6 mph N/A   Mostly Cloudy
7:35 PM 51.1 °F - 30.4 °F 45% 30.22 in 10.0 mi North 10.4 mph 18.4 mph N/A   Mostly Cloudy
8:15 PM 49.5 °F - 29.3 °F 46% 30.23 in 10.0 mi NNE 10.4 mph - N/A   Overcast
8:35 PM 49.1 °F - 28.4 °F 45% 30.25 in 10.0 mi NNE 11.5 mph 17.3 mph N/A   Overcast
8:55 PM 48.7 °F - 28.4 °F 45% 30.27 in 10.0 mi North 8.1 mph - N/A   Overcast
9:15 PM 48.2 °F - 28.0 °F 46% 30.28 in 10.0 mi North 8.1 mph - N/A   Overcast
9:55 PM 47.5 °F - 28.2 °F 47% 30.30 in 10.0 mi North 6.9 mph - N/A   Overcast
10:55 PM 47.5 °F - 28.4 °F 48% 30.32 in 10.0 mi North 5.8 mph - N/A   Overcast
11:15 PM 47.3 °F - 29.1 °F 49% 30.33 in 10.0 mi North 4.6 mph - N/A   Overcast
11:35 PM 47.3 °F - 29.1 °F 49% 30.34 in 10.0 mi North 4.6 mph - N/A   Overcast